EW3197 Weather Reports


Display with metric or nautical units.
time (UTC)temp
F
wind
direction
speed
MPH
gust
MPH
rain 1hr
in
rain 24hr
in
rain mn
in
humidity
%
barometer
mb
20260906133206 66 42 1.0 3.0 0.00 0.00 0.00 77 1015.2
20260906132705 65 33 2.0 3.0 0.00 0.00 0.00 78 1015.2
20260906132204 65 41 2.0 6.0 0.00 0.00 0.00 80 1015.2
20260906131204 63 318 1.0 2.0 0.00 0.00 0.00 80 1015.2
20260906130704 64 318 1.0 2.0 0.00 0.00 0.00 81 1015.3
20260906130204 64 318 1.0 3.0 0.00 0.00 0.00 82 1015.3
20260906124204 63 319 2.0 3.0 0.00 0.00 0.00 84 1015.2
20260906123704 63 319 1.0 3.0 0.00 0.00 0.00 84 1015.2
20260906123204 63 319 1.0 3.0 0.00 0.00 0.00 84 1015.2
20260906122704 62 318 2.0 3.0 0.00 0.00 0.00 84 1015.2
20260906122204 62 318 1.0 2.0 0.00 0.00 0.00 84 1015.1
20260906121704 62 318 0.0 2.0 0.00 0.00 0.00 84 1015.1
20260906121204 62 318 0.0 2.0 0.00 0.00 0.00 85 1015.1
20260906120704 62 317 1.0 3.0 0.00 0.00 0.00 85 1015.0
20260906120203 62 324 2.0 8.0 0.00 0.00 0.00 85 1015.1
20260906115704 62 302 2.0 3.0 0.00 0.00 0.00 85 1015.0
20260906115203 62 322 0.0 1.0 0.00 0.00 0.00 86 1014.8
20260906114704 62 322 0.0 0.0 0.00 0.00 0.00 86 1014.8
20260906114204 61 322 0.0 0.0 0.00 0.00 0.00 87 1014.7
20260906113204 61 322 1.0 2.0 0.00 0.00 0.00 87 1014.7
20260906112705 61 322 0.0 0.0 0.00 0.00 0.00 87 1014.7
20260906112203 61 322 0.0 0.0 0.00 0.00 0.00 88 1014.6
20260906110203 61 322 0.0 0.0 0.00 0.00 0.00 88 1014.5
20260906105704 61 322 0.0 0.0 0.00 0.00 0.00 88 1014.3
20260906105204 61 322 0.0 0.0 0.00 0.00 0.00 88 1014.2
20260906104703 61 321 0.0 0.0 0.00 0.00 0.00 88 1014.2
20260906103704 61 322 0.0 2.0 0.00 0.00 0.00 88 1014.1
20260906102704 61 321 0.0 0.0 0.00 0.00 0.00 88 1013.7
20260906101704 61 321 0.0 0.0 0.00 0.00 0.00 88 1013.7
20260906101204 61 321 0.0 0.0 0.00 0.00 0.00 88 1013.6
20260906100204 61 321 0.0 0.0 0.00 0.00 0.00 88 1013.6
20260906095704 61 321 0.0 0.0 0.00 0.00 0.00 88 1013.6
20260906095204 61 321 0.0 0.0 0.00 0.00 0.00 88 1013.5
20260906094704 61 321 0.0 0.0 0.00 0.00 0.00 88 1013.4
20260906094204 61 321 0.0 0.0 0.00 0.00 0.00 89 1013.4
20260906093704 61 321 0.0 1.0 0.00 0.00 0.00 89 1013.5
20260906093205 60 321 0.0 1.0 0.00 0.00 0.00 89 1013.5
20260906092704 60 321 0.0 0.0 0.00 0.00 0.00 89 1013.4
20260906092204 60 321 0.0 0.0 0.00 0.00 0.00 89 1013.3
20260906091704 60 321 0.0 0.0 0.00 0.00 0.00 88 1013.0
20260906091204 60 321 0.0 0.0 0.00 0.00 0.00 89 1013.1
20260906090704 60 321 0.0 0.0 0.00 0.00 0.00 89 1013.0
20260906085704 60 321 0.0 0.0 0.00 0.00 0.00 89 1013.1
20260906085204 60 321 0.0 0.0 0.00 0.00 0.00 89 1013.1
20260906084704 60 321 0.0 0.0 0.00 0.00 0.00 89 1013.1
20260906084204 60 321 0.0 0.0 0.00 0.00 0.00 89 1013.1
20260906083704 61 321 0.0 0.0 0.00 0.00 0.00 89 1013.2
20260906083204 61 321 0.0 0.0 0.00 0.00 0.00 89 1013.2
20260906082704 61 321 0.0 0.0 0.00 0.00 0.00 89 1013.1
20260906082204 61 321 0.0 0.0 0.00 0.00 0.00 89 1013.0
20260906081704 61 321 0.0 0.0 0.00 0.00 0.00 89 1013.0
20260906081205 61 321 0.0 0.0 0.00 0.00 0.00 89 1013.0
20260906080704 62 321 0.0 0.0 0.00 0.00 0.00 89 1013.0
20260906080203 62 321 0.0 0.0 0.00 0.00 0.00 89 1013.0
20260906075704 61 321 0.0 0.0 0.00 0.00 0.00 89 1013.1
20260906074703 62 321 0.0 0.0 0.00 0.00 0.00 89 1012.9
20260906073704 62 321 0.0 0.0 0.00 0.00 0.00 89 1013.1
20260906073204 62 321 0.0 1.0 0.00 0.00 0.00 89 1013.2
20260906072703 62 321 1.0 2.0 0.00 0.00 0.00 89 1013.1
20260906072205 61 321 0.0 1.0 0.00 0.00 0.00 89 1013.1
20260906071704 61 321 0.0 0.0 0.00 0.00 0.00 89 1013.0
20260906071204 61 321 0.0 1.0 0.00 0.00 0.00 89 1013.0
20260906070203 61 321 1.0 3.0 0.00 0.00 0.00 89 1012.9
20260906065704 61 60 0.0 0.0 0.00 0.00 0.00 89 1012.9
20260906065204 61 60 0.0 0.0 0.00 0.00 0.00 89 1012.8
20260906064704 61 60 0.0 0.0 0.00 0.00 0.00 89 1012.8
20260906064204 61 60 0.0 0.0 0.00 0.00 0.00 89 1012.8
20260906063704 61 60 0.0 0.0 0.00 0.00 0.00 89 1012.8
20260906063204 61 60 0.0 0.0 0.00 0.00 0.00 89 1012.9
20260906061704 61 60 0.0 0.0 0.00 0.00 0.00 89 1012.8
20260906061204 61 60 0.0 0.0 0.00 0.00 0.00 89 1012.9
20260906060704 61 60 0.0 0.0 0.00 0.00 0.00 89 1013.0
20260906060205 61 60 0.0 0.0 0.00 0.00 0.00 89 1013.1
20260906055703 61 60 0.0 0.0 0.00 0.00 0.00 89 1013.1
20260906055204 61 60 0.0 0.0 0.00 0.00 0.00 89 1013.1
20260906054704 61 68 0.0 2.0 0.00 0.00 0.00 89 1013.1
20260906054204 61 69 0.0 2.0 0.00 0.00 0.00 89 1013.1
20260906053703 60 69 0.0 0.0 0.00 0.00 0.00 89 1013.1
20260906053205 60 69 0.0 0.0 0.00 0.00 0.00 89 1013.1
20260906052704 60 69 0.0 0.0 0.00 0.00 0.00 89 1013.1
20260906052204 60 69 0.0 0.0 0.00 0.00 0.00 89 1013.0
20260906051704 60 69 0.0 0.0 0.00 0.00 0.00 89 1013.1
20260906051204 60 69 0.0 0.0 0.00 0.00 0.00 89 1013.1
20260906050704 60 69 0.0 0.0 0.00 0.00 0.00 89 1013.1
20260906050204 60 69 0.0 0.0 0.00 0.00 0.00 89 1013.1
20260906045704 59 69 0.0 0.0 0.00 0.00 0.00 89 1013.0
20260906045203 59 69 0.0 0.0 0.00 0.00 0.00 89 1013.0
20260906044704 59 69 0.0 0.0 0.00 0.00 0.00 89 1013.0
20260906044204 59 69 0.0 0.0 0.00 0.00 0.00 89 1013.0
20260906043703 59 69 0.0 0.0 0.00 0.00 0.00 88 1012.9
20260906043204 59 69 0.0 0.0 0.00 0.00 0.00 88 1012.9
20260906042203 59 69 0.0 0.0 0.00 0.00 0.00 88 1012.9
20260906041704 59 69 0.0 0.0 0.00 0.00 0.00 88 1012.8
20260906041204 59 69 0.0 0.0 0.00 0.00 0.00 88 1012.8
20260906040704 60 69 0.0 0.0 0.00 0.00 0.00 88 1012.8
20260906040204 60 69 0.0 0.0 0.00 0.00 0.00 88 1012.8
20260906035704 60 69 0.0 0.0 0.00 0.00 0.00 88 1012.8
20260906035204 60 69 0.0 0.0 0.00 0.00 0.00 88 1012.8
20260906034704 60 69 0.0 0.0 0.00 0.00 0.00 88 1012.8
20260906034203 60 69 0.0 0.0 0.00 0.00 0.00 88 1012.8
20260906033704 61 69 0.0 0.0 0.00 0.00 0.00 87 1012.7
20260906033204 61 69 0.0 0.0 0.00 0.00 0.00 87 1012.7
20260906032704 61 69 0.0 0.0 0.00 0.00 0.00 87 1012.7
20260906031705 61 69 0.0 0.0 0.00 0.00 0.00 87 1012.7
20260906031204 62 69 0.0 0.0 0.00 0.00 0.00 87 1012.6
20260906030703 62 69 0.0 0.0 0.00 0.00 0.00 87 1012.6
20260906030204 62 69 0.0 0.0 0.00 0.00 0.00 87 1012.5
20260906024704 62 69 0.0 0.0 0.00 0.00 0.00 87 1012.5
20260906024204 62 69 0.0 0.0 0.00 0.00 0.00 87 1012.5
20260906023704 62 69 0.0 0.0 0.00 0.00 0.00 87 1012.6
20260906023204 62 69 0.0 0.0 0.00 0.00 0.00 87 1012.6
20260906022704 62 69 0.0 0.0 0.00 0.00 0.00 87 1012.6
20260906022204 62 69 0.0 0.0 0.00 0.00 0.00 87 1012.6
20260906021704 62 69 0.0 0.0 0.00 0.00 0.00 87 1012.6
20260906021204 62 69 0.0 0.0 0.00 0.00 0.00 87 1012.5
20260906020706 62 69 0.0 0.0 0.00 0.00 0.00 87 1012.5
20260906020204 61 69 0.0 0.0 0.00 0.00 0.00 87 1012.5
20260906015703 61 69 0.0 0.0 0.00 0.00 0.00 87 1012.4
20260906015204 61 69 0.0 0.0 0.00 0.00 0.00 87 1012.3
20260906014704 61 69 0.0 0.0 0.00 0.00 0.00 87 1012.4
20260906014203 61 69 0.0 0.0 0.00 0.00 0.00 87 1012.3
20260906013204 61 69 0.0 0.0 0.00 0.00 0.00 87 1012.2
20260906012704 61 69 0.0 0.0 0.00 0.00 0.00 87 1012.2
20260906012204 61 69 0.0 0.0 0.00 0.00 0.00 87 1012.1
20260906011704 61 69 0.0 0.0 0.00 0.00 0.00 87 1012.2
20260906011204 61 69 0.0 0.0 0.00 0.00 0.00 86 1012.2
20260906010703 61 69 0.0 0.0 0.00 0.00 0.00 86 1012.2
20260906010204 61 69 0.0 0.0 0.00 0.00 0.00 86 1012.3
20260906005704 62 69 0.0 0.0 0.00 0.00 0.00 86 1012.3
20260906004204 62 69 0.0 1.0 0.00 0.00 0.00 86 1012.1
20260906003704 62 69 0.0 0.0 0.00 0.00 0.00 85 1012.0
20260906003204 63 69 0.0 0.0 0.00 0.00 0.00 85 1012.1
20260906002705 63 69 0.0 0.0 0.00 0.00 0.00 85 1011.9
20260906002204 63 69 0.0 0.0 0.00 0.00 0.00 85 1011.9
20260906001705 63 69 0.0 0.0 0.00 0.00 0.00 85 1011.9
20260906001205 63 69 0.0 0.0 0.00 0.00 0.00 85 1011.9
20260906000704 64 69 0.0 0.0 0.00 0.00 0.00 84 1011.9
20260906000204 64 69 0.0 0.0 0.00 0.00 0.00 84 1011.9
20260905235703 64 69 0.0 0.0 0.00 0.00 0.00 84 1011.9
20260905235204 64 69 0.0 0.0 0.00 0.00 0.00 84 1011.8
20260905234703 65 69 0.0 0.0 0.00 0.00 0.00 83 1011.6
20260905234204 65 69 0.0 0.0 0.00 0.00 0.00 83 1011.6
20260905233704 65 69 0.0 0.0 0.00 0.00 0.00 82 1011.5
20260905233204 66 69 0.0 0.0 0.00 0.00 0.00 82 1011.5
20260905232704 66 69 0.0 0.0 0.00 0.00 0.00 81 1011.4
20260905232204 67 69 0.0 0.0 0.00 0.00 0.00 81 1011.3
20260905231204 67 69 0.0 0.0 0.00 0.00 0.00 79 1011.2
20260905230704 67 69 0.0 2.0 0.00 0.00 0.00 80 1011.2
20260905230204 68 68 0.0 0.0 0.00 0.00 0.00 80 1011.2
20260905225704 68 68 0.0 0.0 0.00 0.00 0.00 79 1011.2
20260905224704 69 68 0.0 0.0 0.00 0.00 0.00 78 1011.3
20260905224204 69 68 0.0 0.0 0.00 0.00 0.00 76 1011.2
20260905223704 70 68 0.0 1.0 0.00 0.00 0.00 75 1011.2
20260905223204 70 68 0.0 1.0 0.00 0.00 0.00 74 1011.2
20260905222704 70 68 1.0 2.0 0.00 0.00 0.00 74 1011.1
20260905222203 71 68 1.0 3.0 0.00 0.00 0.00 74 1011.0
20260905221704 71 333 0.0 1.0 0.00 0.00 0.00 73 1011.0
20260905221203 71 333 1.0 2.0 0.00 0.00 0.00 71 1011.0
20260905215703 72 333 2.0 3.0 0.00 0.00 0.00 70 1010.8
20260905215204 72 318 1.0 10.0 0.00 0.00 0.00 70 1010.7
20260905214704 73 334 1.0 3.0 0.00 0.00 0.00 69 1010.7
20260905212704 75 19 2.0 7.0 0.00 0.00 0.00 66 1010.5
20260905211705 75 351 2.0 6.0 0.00 0.00 0.00 64 1010.5
20260905211203 75 199 3.0 12.0 0.00 0.00 0.00 63 1010.6
20260905210704 75 318 2.0 5.0 0.00 0.00 0.00 65 1010.6
20260905205704 76 326 1.0 6.0 0.00 0.00 0.00 65 1010.3
20260905205204 76 235 2.0 5.0 0.00 0.00 0.00 64 1010.2
20260905204704 76 336 2.0 7.0 0.00 0.00 0.00 64 1010.2
20260905204204 77 264 2.0 6.0 0.00 0.00 0.00 64 1010.2
20260905203703 77 334 3.0 8.0 0.00 0.00 0.00 62 1010.2
20260905203204 77 297 3.0 7.0 0.00 0.00 0.00 63 1010.3
20260905202704 77 290 2.0 9.0 0.00 0.00 0.00 63 1010.2
20260905202204 77 294 3.0 8.0 0.00 0.00 0.00 64 1010.2
20260905201704 75 249 2.0 3.0 0.00 0.00 0.00 66 1010.3
20260905201204 73 344 2.0 5.0 0.00 0.00 0.00 67 1010.3
20260905200703 73 269 2.0 6.0 0.00 0.00 0.00 68 1010.2
20260905195704 74 22 2.0 6.0 0.00 0.00 0.00 67 1010.2
20260905195204 75 28 3.0 9.0 0.00 0.00 0.00 64 1010.2
20260905194704 78 296 4.0 15.0 0.00 0.00 0.00 60 1010.1
20260905194204 79 105 3.0 12.0 0.00 0.00 0.00 59 1010.0
20260905193704 79 307 2.0 8.0 0.00 0.00 0.00 63 1009.9
20260905193204 78 272 3.0 8.0 0.00 0.00 0.00 61 1009.9
20260905192704 78 242 3.0 10.0 0.00 0.00 0.00 63 1009.9
20260905192204 78 234 2.0 8.0 0.00 0.00 0.00 61 1009.8
20260905191703 78 319 2.0 7.0 0.00 0.00 0.00 61 1010.0
20260905191204 77 339 2.0 7.0 0.00 0.00 0.00 64 1009.9
20260905190704 77 50 5.0 12.0 0.00 0.00 0.00 62 1010.0
20260905190204 77 342 2.0 8.0 0.00 0.00 0.00 62 1010.0
20260905185704 77 288 2.0 3.0 0.00 0.00 0.00 64 1010.1
20260905185204 77 67 2.0 7.0 0.00 0.00 0.00 63 1010.0
20260905184704 78 346 4.0 8.0 0.00 0.00 0.00 62 1010.1
20260905184204 78 323 3.0 9.0 0.00 0.00 0.00 62 1010.1
20260905183704 78 8 3.0 5.0 0.00 0.00 0.00 65 1010.0
20260905183204 77 239 2.0 8.0 0.00 0.00 0.00 64 1010.0
20260905182704 77 179 2.0 6.0 0.00 0.00 0.00 64 1010.1
20260905181704 76 236 2.0 6.0 0.00 0.00 0.00 64 1010.0
20260905181204 76 323 3.0 9.0 0.00 0.00 0.00 63 1010.1
20260905180704 76 211 1.0 7.0 0.00 0.00 0.00 66 1010.2
20260905180204 76 224 3.0 6.0 0.00 0.00 0.00 64 1010.2
20260905175704 76 300 3.0 9.0 0.00 0.00 0.00 65 1010.3
20260905175204 75 330 2.0 9.0 0.00 0.00 0.00 66 1010.4
20260905174704 76 272 3.0 8.0 0.00 0.00 0.00 65 1010.4
20260905174204 76 241 2.0 9.0 0.00 0.00 0.00 65 1010.3
20260905173704 76 204 3.0 12.0 0.00 0.00 0.00 64 1010.3
20260905172704 74 57 1.0 8.0 0.00 0.00 0.00 66 1010.4
20260905172204 75 36 2.0 8.0 0.00 0.00 0.00 66 1010.4
20260905171704 75 289 3.0 8.0 0.00 0.00 0.00 62 1010.3
20260905171205 75 341 2.0 7.0 0.00 0.00 0.00 64 1010.2
20260905170704 75 287 3.0 7.0 0.00 0.00 0.00 66 1010.3
20260905170204 75 274 2.0 3.0 0.00 0.00 0.00 66 1010.3
20260905165703 74 311 2.0 3.0 0.00 0.00 0.00 67 1010.4
20260905165204 74 333 1.0 3.0 0.00 0.00 0.00 67 1010.3
20260905164704 74 306 2.0 5.0 0.00 0.00 0.00 66 1010.3
20260905164203 73 10 3.0 5.0 0.00 0.00 0.00 68 1010.4
20260905163704 72 274 1.0 3.0 0.00 0.00 0.00 68 1010.4
20260905162704 73 319 2.0 3.0 0.00 0.00 0.00 67 1010.3
20260905161704 73 291 2.0 3.0 0.00 0.00 0.00 68 1010.4
20260905161203 73 311 2.0 6.0 0.00 0.00 0.00 66 1010.3
20260905160204 72 286 2.0 7.0 0.00 0.00 0.00 68 1010.4
20260905155704 72 262 2.0 3.0 0.00 0.00 0.00 68 1010.4
20260905155204 73 316 4.0 9.0 0.00 0.00 0.00 67 1010.5
20260905154704 73 325 2.0 9.0 0.00 0.00 0.00 67 1010.5
20260905154204 72 329 3.0 8.0 0.00 0.00 0.00 69 1010.6
20260905153704 72 313 2.0 8.0 0.00 0.00 0.00 69 1010.6
20260905153204 72 276 1.0 12.0 0.00 0.00 0.00 68 1010.6
20260905152704 73 339 4.0 8.0 0.00 0.00 0.00 67 1010.6
20260905152204 72 3 2.0 8.0 0.00 0.00 0.00 70 1010.6
20260905151704 71 34 1.0 9.0 0.00 0.00 0.00 70 1010.7
20260905151204 71 63 1.0 3.0 0.00 0.00 0.00 70 1010.7
20260905150704 72 228 4.0 10.0 0.00 0.00 0.00 68 1010.6
20260905150204 72 307 3.0 9.0 0.00 0.00 0.00 70 1010.6
20260905145705 72 247 3.0 9.0 0.00 0.00 0.00 70 1010.6
20260905145204 72 304 3.0 8.0 0.00 0.00 0.00 70 1010.6
20260905144704 71 244 3.0 6.0 0.00 0.00 0.00 73 1010.6
20260905144204 70 280 1.0 6.0 0.00 0.00 0.00 72 1010.5
20260905143703 71 209 3.0 8.0 0.00 0.00 0.00 71 1010.6
20260905143204 71 238 2.0 8.0 0.00 0.00 0.00 71 1010.5
20260905142704 71 328 3.0 7.0 0.00 0.00 0.00 71 1010.5
20260905142203 71 285 2.0 6.0 0.00 0.00 0.00 71 1010.5
20260905141704 71 283 3.0 8.0 0.00 0.00 0.00 72 1010.6
20260905141204 70 33 2.0 3.0 0.00 0.00 0.00 75 1010.6
20260905140704 69 306 2.0 9.0 0.00 0.00 0.00 76 1010.6
20260905135704 69 286 2.0 6.0 0.00 0.00 0.00 76 1010.6
20260905135204 69 318 1.0 6.0 0.00 0.00 0.00 76 1010.7
20260905134704 69 267 2.0 8.0 0.00 0.00 0.00 76 1010.7
20260905134204 68 334 2.0 5.0 0.00 0.00 0.00 76 1010.7
20260905133704 68 212 1.0 3.0 0.00 0.00 0.00 76 1010.8